contact:dominique.lefevre@mio.osupytheas.fr, maurice.libes@osupytheas.fr, didier.mallarino@osupytheas.fr
Project:EMSO http://www.emso-fr.org/EMSO-France
Depth: 2436.0 m
Title:EMSO Ligure Ouest : Data MII capteur CSTAR
DateTime,Latitude,Longitude,Instrument_Serial,Reference_Counts,Signal_Counts,Corrected_Signal_raw_counts,Calculated_Beam_c_inverse_meters,Internal_thermistor_counts
DateTime,Latitude,Longitude,Instrument_Serial,Reference_Counts,Signal_Counts,Corrected_Signal_raw_counts,Calculated_Beam_c_inverse_meters,Internal_thermistor_counts
2021-08-25T00:00:17,42.805,6.029,CST-1368DR,5275,7256,14740,0.231,551
2021-08-25T00:03:19,42.805,6.029,CST-1368DR,5275,7257,14742,0.230,551
2021-08-25T00:06:20,42.805,6.029,CST-1368DR,5275,7257,14741,0.231,551
2021-08-25T00:09:22,42.805,6.029,CST-1368DR,5275,7256,14740,0.231,551
2021-08-25T00:12:24,42.805,6.029,CST-1368DR,5275,7256,14739,0.231,551
2021-08-25T00:15:25,42.805,6.029,CST-1368DR,5275,7257,14742,0.230,551
2021-08-25T00:18:27,42.805,6.029,CST-1368DR,5275,7257,14742,0.230,551
2021-08-25T00:21:28,42.805,6.029,CST-1368DR,5275,7257,14741,0.231,551
2021-08-25T00:24:30,42.805,6.029,CST-1368DR,5275,7256,14740,0.231,551
2021-08-25T00:27:31,42.805,6.029,CST-1368DR,5275,7256,14740,0.231,551
2021-08-25T00:30:33,42.805,6.029,CST-1368DR,5275,7257,14742,0.230,551
2021-08-25T00:33:35,42.805,6.029,CST-1368DR,5275,7257,14742,0.230,551
2021-08-25T00:36:36,42.805,6.029,CST-1368DR,5275,7257,14741,0.231,551
2021-08-25T00:39:38,42.805,6.029,CST-1368DR,5275,7257,14741,0.231,551
2021-08-25T00:42:39,42.805,6.029,CST-1368DR,5275,7257,14742,0.230,551
2021-08-25T00:45:41,42.805,6.029,CST-1368DR,5275,7255,14738,0.231,551
2021-08-25T00:48:42,42.805,6.029,CST-1368DR,5275,7257,14742,0.230,551
2021-08-25T00:51:44,42.805,6.029,CST-1368DR,5275,7257,14741,0.231,551
2021-08-25T00:54:46,42.805,6.029,CST-1368DR,5275,7257,14742,0.230,551
2021-08-25T00:57:47,42.805,6.029,CST-1368DR,5275,7257,14741,0.231,551
2021-08-25T01:00:49,42.805,6.029,CST-1368DR,5275,7257,14741,0.231,551
2021-08-25T01:03:50,42.805,6.029,CST-1368DR,5275,7258,14743,0.230,551
2021-08-25T01:06:52,42.805,6.029,CST-1368DR,5275,7258,14743,0.230,551
2021-08-25T01:09:54,42.805,6.029,CST-1368DR,5275,7257,14741,0.231,551
2021-08-25T01:12:55,42.805,6.029,CST-1368DR,5275,7256,14740,0.231,551
2021-08-25T01:15:57,42.805,6.029,CST-1368DR,5275,7253,14734,0.233,551
2021-08-25T01:18:58,42.805,6.029,CST-1368DR,5275,7256,14739,0.231,551
2021-08-25T01:22:00,42.805,6.029,CST-1368DR,5275,7256,14740,0.231,550
2021-08-25T01:25:01,42.805,6.029,CST-1368DR,5275,7254,14735,0.232,551
2021-08-25T01:28:03,42.805,6.029,CST-1368DR,5275,7256,14740,0.231,551
2021-08-25T01:31:05,42.805,6.029,CST-1368DR,5275,7257,14742,0.230,551
2021-08-25T01:34:06,42.805,6.029,CST-1368DR,5275,7256,14739,0.231,551
2021-08-25T01:37:08,42.805,6.029,CST-1368DR,5275,7256,14740,0.231,551
2021-08-25T01:40:09,42.805,6.029,CST-1368DR,5275,7257,14741,0.231,551
2021-08-25T01:43:11,42.805,6.029,CST-1368DR,5275,7254,14735,0.232,551
2021-08-25T01:46:12,42.805,6.029,CST-1368DR,5275,7256,14739,0.231,551
2021-08-25T01:49:14,42.805,6.029,CST-1368DR,5275,7257,14741,0.231,551
2021-08-25T01:52:16,42.805,6.029,CST-1368DR,5275,7255,14738,0.231,551
2021-08-25T01:55:17,42.805,6.029,CST-1368DR,5275,7257,14742,0.230,551
2021-08-25T01:58:19,42.805,6.029,CST-1368DR,5275,7257,14742,0.230,551
2021-08-25T02:01:20,42.805,6.029,CST-1368DR,5275,7257,14742,0.230,551
2021-08-25T02:04:22,42.805,6.029,CST-1368DR,5275,7257,14741,0.231,551
2021-08-25T02:07:24,42.805,6.029,CST-1368DR,5275,7257,14741,0.231,551
2021-08-25T02:10:25,42.805,6.029,CST-1368DR,5275,7257,14741,0.231,551
2021-08-25T02:13:27,42.805,6.029,CST-1368DR,5275,7256,14740,0.231,551
2021-08-25T02:16:28,42.805,6.029,CST-1368DR,5275,7256,14740,0.231,551
2021-08-25T02:19:30,42.805,6.029,CST-1368DR,5275,7256,14740,0.231,551
2021-08-25T02:22:31,42.805,6.029,CST-1368DR,5275,7256,14740,0.231,551
2021-08-25T02:25:33,42.805,6.029,CST-1368DR,5275,7257,14742,0.230,550
2021-08-25T02:28:35,42.805,6.029,CST-1368DR,5275,7257,14741,0.231,551
2021-08-25T02:31:36,42.805,6.029,CST-1368DR,5275,7257,14741,0.231,551
2021-08-25T02:34:38,42.805,6.029,CST-1368DR,5275,7257,14741,0.231,551
2021-08-25T02:37:39,42.805,6.029,CST-1368DR,5275,7256,14740,0.231,551
2021-08-25T02:40:41,42.805,6.029,CST-1368DR,5275,7257,14742,0.230,550
2021-08-25T02:43:43,42.805,6.029,CST-1368DR,5275,7256,14740,0.231,551
2021-08-25T02:46:44,42.805,6.029,CST-1368DR,5275,7258,14743,0.230,551
2021-08-25T02:49:46,42.805,6.029,CST-1368DR,5275,7257,14741,0.231,551
2021-08-25T02:52:47,42.805,6.029,CST-1368DR,5275,7257,14741,0.231,551
2021-08-25T02:55:49,42.805,6.029,CST-1368DR,5275,7257,14742,0.230,551
2021-08-25T02:58:50,42.805,6.029,CST-1368DR,5275,7250,14728,0.234,551
2021-08-25T03:01:52,42.805,6.029,CST-1368DR,5275,7255,14738,0.231,551
2021-08-25T03:04:54,42.805,6.029,CST-1368DR,5275,7257,14741,0.231,551
2021-08-25T03:07:55,42.805,6.029,CST-1368DR,5275,7257,14741,0.231,551
2021-08-25T03:10:57,42.805,6.029,CST-1368DR,5275,7257,14741,0.231,551
2021-08-25T03:13:58,42.805,6.029,CST-1368DR,5275,7257,14741,0.231,551
2021-08-25T03:17:00,42.805,6.029,CST-1368DR,5275,7256,14740,0.231,551
2021-08-25T03:20:01,42.805,6.029,CST-1368DR,5275,7257,14741,0.231,551
2021-08-25T03:23:03,42.805,6.029,CST-1368DR,5275,7255,14738,0.231,551
2021-08-25T03:26:05,42.805,6.029,CST-1368DR,5275,7256,14740,0.231,551
2021-08-25T03:29:06,42.805,6.029,CST-1368DR,5275,7257,14741,0.231,551
2021-08-25T03:32:08,42.805,6.029,CST-1368DR,5275,7257,14741,0.231,551
2021-08-25T03:35:09,42.805,6.029,CST-1368DR,5275,7255,14738,0.231,551
2021-08-25T03:38:11,42.805,6.029,CST-1368DR,5275,7256,14740,0.231,551
2021-08-25T03:41:13,42.805,6.029,CST-1368DR,5275,7256,14740,0.231,551
2021-08-25T03:44:14,42.805,6.029,CST-1368DR,5275,7255,14738,0.231,551
2021-08-25T03:47:16,42.805,6.029,CST-1368DR,5275,7256,14740,0.231,551
2021-08-25T03:50:17,42.805,6.029,CST-1368DR,5275,7257,14741,0.231,551
2021-08-25T03:53:19,42.805,6.029,CST-1368DR,5275,7255,14738,0.231,551
2021-08-25T03:56:20,42.805,6.029,CST-1368DR,5275,7256,14739,0.231,551
2021-08-25T03:59:22,42.805,6.029,CST-1368DR,5275,7256,14740,0.231,551
2021-08-25T04:02:24,42.805,6.029,CST-1368DR,5275,7257,14741,0.231,551
2021-08-25T04:05:25,42.805,6.029,CST-1368DR,5275,7256,14739,0.231,551
2021-08-25T04:08:27,42.805,6.029,CST-1368DR,5275,7256,14739,0.231,551
2021-08-25T04:11:28,42.805,6.029,CST-1368DR,5275,7256,14740,0.231,551
2021-08-25T04:14:30,42.805,6.029,CST-1368DR,5275,7255,14737,0.232,550
2021-08-25T04:17:32,42.805,6.029,CST-1368DR,5275,7252,14731,0.233,551
2021-08-25T04:20:33,42.805,6.029,CST-1368DR,5275,7257,14741,0.231,551
2021-08-25T04:23:35,42.805,6.029,CST-1368DR,5275,7257,14741,0.231,551
2021-08-25T04:26:36,42.805,6.029,CST-1368DR,5275,7257,14741,0.231,551
2021-08-25T04:29:38,42.805,6.029,CST-1368DR,5275,7254,14735,0.232,551
2021-08-25T04:32:39,42.805,6.029,CST-1368DR,5275,7255,14738,0.231,551
2021-08-25T04:35:41,42.805,6.029,CST-1368DR,5275,7256,14739,0.231,551
2021-08-25T04:38:43,42.805,6.029,CST-1368DR,5275,7255,14737,0.232,551
2021-08-25T04:41:44,42.805,6.029,CST-1368DR,5275,7256,14740,0.231,551
2021-08-25T04:44:46,42.805,6.029,CST-1368DR,5275,7255,14737,0.232,551
2021-08-25T04:47:47,42.805,6.029,CST-1368DR,5275,7255,14738,0.231,551
2021-08-25T04:50:49,42.805,6.029,CST-1368DR,5275,7255,14737,0.232,551
2021-08-25T04:53:50,42.805,6.029,CST-1368DR,5275,7256,14740,0.231,551
2021-08-25T04:56:52,42.805,6.029,CST-1368DR,5275,7256,14740,0.231,551
2021-08-25T04:59:54,42.805,6.029,CST-1368DR,5275,7256,14740,0.231,551
2021-08-25T05:02:55,42.805,6.029,CST-1368DR,5275,7256,14739,0.231,551
2021-08-25T05:05:57,42.805,6.029,CST-1368DR,5275,7255,14738,0.231,551
2021-08-25T05:08:58,42.805,6.029,CST-1368DR,5275,7255,14738,0.231,551
2021-08-25T05:12:00,42.805,6.029,CST-1368DR,5275,7256,14740,0.231,551
2021-08-25T05:15:02,42.805,6.029,CST-1368DR,5275,7255,14738,0.231,551
2021-08-25T05:18:03,42.805,6.029,CST-1368DR,5275,7255,14737,0.232,551
2021-08-25T05:21:05,42.805,6.029,CST-1368DR,5275,7256,14739,0.231,551
2021-08-25T05:24:06,42.805,6.029,CST-1368DR,5275,7255,14738,0.231,551
2021-08-25T05:27:08,42.805,6.029,CST-1368DR,5275,7255,14738,0.231,551
2021-08-25T05:30:09,42.805,6.029,CST-1368DR,5275,7255,14738,0.231,551
2021-08-25T05:33:11,42.805,6.029,CST-1368DR,5275,7256,14740,0.231,551
2021-08-25T05:36:13,42.805,6.029,CST-1368DR,5275,7255,14738,0.231,551
2021-08-25T05:39:14,42.805,6.029,CST-1368DR,5275,7255,14738,0.231,551
2021-08-25T05:42:16,42.805,6.029,CST-1368DR,5275,7255,14737,0.232,551
2021-08-25T05:45:17,42.805,6.029,CST-1368DR,5275,7255,14738,0.231,551
2021-08-25T05:48:19,42.805,6.029,CST-1368DR,5275,7255,14738,0.231,551
2021-08-25T05:51:20,42.805,6.029,CST-1368DR,5275,7256,14739,0.231,551
2021-08-25T05:54:22,42.805,6.029,CST-1368DR,5275,7255,14737,0.232,551
2021-08-25T05:57:24,42.805,6.029,CST-1368DR,5275,7254,14736,0.232,551
2021-08-25T06:00:25,42.805,6.029,CST-1368DR,5275,7255,14737,0.232,551
2021-08-25T06:03:27,42.805,6.029,CST-1368DR,5275,7255,14737,0.232,551
2021-08-25T06:06:28,42.805,6.029,CST-1368DR,5275,7255,14738,0.231,551
2021-08-25T06:09:30,42.805,6.029,CST-1368DR,5275,7255,14738,0.231,551
2021-08-25T06:12:32,42.805,6.029,CST-1368DR,5275,7254,14735,0.232,551
2021-08-25T06:15:33,42.805,6.029,CST-1368DR,5275,7255,14738,0.231,551
2021-08-25T06:18:35,42.805,6.029,CST-1368DR,5275,7255,14737,0.232,551
2021-08-25T06:21:36,42.805,6.029,CST-1368DR,5275,7255,14737,0.232,551
2021-08-25T06:24:38,42.805,6.029,CST-1368DR,5275,7255,14738,0.231,551
2021-08-25T06:27:39,42.805,6.029,CST-1368DR,5275,7255,14738,0.231,551
2021-08-25T06:30:41,42.805,6.029,CST-1368DR,5275,7255,14737,0.232,551
2021-08-25T06:33:43,42.805,6.029,CST-1368DR,5275,7256,14739,0.231,551
2021-08-25T06:36:44,42.805,6.029,CST-1368DR,5275,7255,14738,0.231,551
2021-08-25T06:39:46,42.805,6.029,CST-1368DR,5275,7255,14738,0.231,551
2021-08-25T06:42:47,42.805,6.029,CST-1368DR,5275,7255,14737,0.232,551
2021-08-25T06:45:49,42.805,6.029,CST-1368DR,5275,7255,14737,0.232,551
2021-08-25T06:48:51,42.805,6.029,CST-1368DR,5275,7255,14737,0.232,551
2021-08-25T06:51:52,42.805,6.029,CST-1368DR,5275,7255,14738,0.231,551
2021-08-25T06:54:54,42.805,6.029,CST-1368DR,5275,7255,14738,0.231,551
2021-08-25T06:57:55,42.805,6.029,CST-1368DR,5275,7255,14738,0.231,551
2021-08-25T07:00:57,42.805,6.029,CST-1368DR,5274,7255,14739,0.231,551
2021-08-25T07:03:58,42.805,6.029,CST-1368DR,5275,7255,14738,0.231,551
2021-08-25T07:07:00,42.805,6.029,CST-1368DR,5275,7255,14737,0.232,551
2021-08-25T07:10:02,42.805,6.029,CST-1368DR,5274,7256,14742,0.230,551
2021-08-25T07:13:03,42.805,6.029,CST-1368DR,5275,7255,14738,0.231,551
2021-08-25T07:16:05,42.805,6.029,CST-1368DR,5275,7254,14736,0.232,551
2021-08-25T07:19:06,42.805,6.029,CST-1368DR,5275,7255,14738,0.231,550
2021-08-25T07:22:08,42.805,6.029,CST-1368DR,5275,7255,14737,0.232,551
2021-08-25T07:25:09,42.805,6.029,CST-1368DR,5275,7255,14737,0.232,551
2021-08-25T07:28:11,42.805,6.029,CST-1368DR,5275,7255,14737,0.232,551
2021-08-25T07:31:13,42.805,6.029,CST-1368DR,5274,7254,14738,0.231,551
2021-08-25T07:34:14,42.805,6.029,CST-1368DR,5274,7255,14740,0.231,551
2021-08-25T07:37:16,42.805,6.029,CST-1368DR,5275,7255,14738,0.231,551
2021-08-25T07:40:17,42.805,6.029,CST-1368DR,5274,7255,14740,0.231,551
2021-08-25T07:43:19,42.805,6.029,CST-1368DR,5274,7255,14740,0.231,551
2021-08-25T07:46:21,42.805,6.029,CST-1368DR,5274,7255,14740,0.231,551
2021-08-25T07:49:22,42.805,6.029,CST-1368DR,5275,7255,14738,0.231,551
2021-08-25T07:52:24,42.805,6.029,CST-1368DR,5275,7254,14736,0.232,551
2021-08-25T07:55:25,42.805,6.029,CST-1368DR,5274,7255,14740,0.231,550
2021-08-25T07:58:27,42.805,6.029,CST-1368DR,5274,7255,14739,0.231,551
2021-08-25T08:01:28,42.805,6.029,CST-1368DR,5274,7252,14733,0.233,551
2021-08-25T08:04:30,42.805,6.029,CST-1368DR,5274,7254,14739,0.231,551
2021-08-25T08:07:32,42.805,6.029,CST-1368DR,5275,7254,14736,0.232,551
2021-08-25T08:10:33,42.805,6.029,CST-1368DR,5275,7255,14737,0.232,551
2021-08-25T08:13:35,42.805,6.029,CST-1368DR,5274,7255,14741,0.231,551
2021-08-25T08:16:36,42.805,6.029,CST-1368DR,5275,7254,14736,0.232,551
2021-08-25T08:19:38,42.805,6.029,CST-1368DR,5274,7254,14739,0.231,551
2021-08-25T08:22:40,42.805,6.029,CST-1368DR,5274,7255,14739,0.231,551
2021-08-25T08:25:41,42.805,6.029,CST-1368DR,5274,7254,14739,0.231,551
2021-08-25T08:28:43,42.805,6.029,CST-1368DR,5274,7251,14731,0.233,551
2021-08-25T08:31:44,42.805,6.029,CST-1368DR,5275,7255,14737,0.232,551
2021-08-25T08:34:46,42.805,6.029,CST-1368DR,5274,7252,14734,0.233,551
2021-08-25T08:37:47,42.805,6.029,CST-1368DR,5275,7254,14736,0.232,551
2021-08-25T08:40:49,42.805,6.029,CST-1368DR,5274,7254,14738,0.231,551
2021-08-25T08:43:51,42.805,6.029,CST-1368DR,5274,7254,14739,0.231,551
2021-08-25T08:46:52,42.805,6.029,CST-1368DR,5274,7254,14739,0.231,551
2021-08-25T08:49:54,42.805,6.029,CST-1368DR,5274,7253,14736,0.232,551
2021-08-25T08:52:55,42.805,6.029,CST-1368DR,5274,7252,14734,0.233,551
2021-08-25T08:55:57,42.805,6.029,CST-1368DR,5274,7254,14738,0.231,551
2021-08-25T08:58:59,42.805,6.029,CST-1368DR,5274,7254,14738,0.231,551
2021-08-25T09:02:00,42.805,6.029,CST-1368DR,5274,7253,14737,0.232,551
2021-08-25T09:05:02,42.805,6.029,CST-1368DR,5274,7254,14739,0.231,551
2021-08-25T09:08:03,42.805,6.029,CST-1368DR,5274,7253,14736,0.232,551
2021-08-25T09:11:05,42.805,6.029,CST-1368DR,5274,7254,14738,0.231,551
2021-08-25T09:14:06,42.805,6.029,CST-1368DR,5274,7255,14740,0.231,551
2021-08-25T09:17:08,42.805,6.029,CST-1368DR,5274,7254,14737,0.232,551
2021-08-25T09:20:10,42.805,6.029,CST-1368DR,5274,7254,14737,0.232,551
2021-08-25T09:23:11,42.805,6.029,CST-1368DR,5274,7254,14738,0.231,551
2021-08-25T09:26:13,42.805,6.029,CST-1368DR,5274,7254,14739,0.231,551
2021-08-25T09:29:14,42.805,6.029,CST-1368DR,5274,7254,14738,0.231,551
2021-08-25T09:32:16,42.805,6.029,CST-1368DR,5274,7254,14738,0.231,551
2021-08-25T09:35:17,42.805,6.029,CST-1368DR,5274,7253,14737,0.232,551
2021-08-25T09:38:19,42.805,6.029,CST-1368DR,5274,7254,14737,0.232,551
2021-08-25T09:41:21,42.805,6.029,CST-1368DR,5274,7254,14737,0.232,551
2021-08-25T09:44:22,42.805,6.029,CST-1368DR,5274,7253,14737,0.232,551
2021-08-25T09:47:24,42.805,6.029,CST-1368DR,5274,7253,14736,0.232,551
2021-08-25T09:50:25,42.805,6.029,CST-1368DR,5274,7254,14737,0.232,551
2021-08-25T09:53:27,42.805,6.029,CST-1368DR,5274,7253,14737,0.232,551
2021-08-25T09:56:29,42.805,6.029,CST-1368DR,5274,7253,14736,0.232,551
2021-08-25T09:59:30,42.805,6.029,CST-1368DR,5274,7253,14737,0.232,551
2021-08-25T10:02:32,42.805,6.029,CST-1368DR,5274,7254,14738,0.231,551
2021-08-25T10:05:33,42.805,6.029,CST-1368DR,5274,7254,14737,0.232,551
2021-08-25T10:08:35,42.805,6.029,CST-1368DR,5274,7252,14734,0.233,551
2021-08-25T10:11:36,42.805,6.029,CST-1368DR,5274,7254,14738,0.231,551
2021-08-25T10:14:38,42.805,6.029,CST-1368DR,5274,7254,14738,0.231,551
2021-08-25T10:17:40,42.805,6.029,CST-1368DR,5274,7254,14738,0.231,551
2021-08-25T10:20:41,42.805,6.029,CST-1368DR,5274,7254,14738,0.231,551
2021-08-25T10:23:43,42.805,6.029,CST-1368DR,5274,7254,14738,0.231,551
2021-08-25T10:26:44,42.805,6.029,CST-1368DR,5274,7254,14738,0.231,551
2021-08-25T10:29:46,42.805,6.029,CST-1368DR,5274,7254,14737,0.232,551
2021-08-25T10:32:48,42.805,6.029,CST-1368DR,5274,7253,14736,0.232,551
2021-08-25T10:35:49,42.805,6.029,CST-1368DR,5274,7253,14737,0.232,551
2021-08-25T10:38:51,42.805,6.029,CST-1368DR,5274,7254,14737,0.232,551
2021-08-25T10:41:52,42.805,6.029,CST-1368DR,5274,7254,14738,0.231,551
2021-08-25T10:44:54,42.805,6.029,CST-1368DR,5274,7254,14738,0.231,551
2021-08-25T10:47:55,42.805,6.029,CST-1368DR,5274,7254,14737,0.232,551
2021-08-25T10:50:57,42.805,6.029,CST-1368DR,5274,7254,14738,0.231,551
2021-08-25T10:53:59,42.805,6.029,CST-1368DR,5274,7254,14737,0.232,551
2021-08-25T10:57:00,42.805,6.029,CST-1368DR,5274,7254,14738,0.231,551
2021-08-25T11:00:02,42.805,6.029,CST-1368DR,5274,7253,14737,0.232,551
2021-08-25T11:03:03,42.805,6.029,CST-1368DR,5274,7253,14737,0.232,551
2021-08-25T11:06:05,42.805,6.029,CST-1368DR,5274,7253,14736,0.232,551
2021-08-25T11:09:06,42.805,6.029,CST-1368DR,5274,7254,14737,0.232,551
2021-08-25T11:12:08,42.805,6.029,CST-1368DR,5274,7254,14737,0.232,551
2021-08-25T11:15:10,42.805,6.029,CST-1368DR,5274,7254,14737,0.232,551
2021-08-25T11:18:11,42.805,6.029,CST-1368DR,5274,7253,14736,0.232,551
2021-08-25T11:21:13,42.805,6.029,CST-1368DR,5274,7254,14738,0.231,551
2021-08-25T11:24:14,42.805,6.029,CST-1368DR,5274,7254,14737,0.232,551
2021-08-25T11:27:16,42.805,6.029,CST-1368DR,5274,7254,14738,0.231,551
2021-08-25T11:30:18,42.805,6.029,CST-1368DR,5274,7253,14735,0.232,551
2021-08-25T11:33:19,42.805,6.029,CST-1368DR,5274,7253,14737,0.232,551
2021-08-25T11:36:21,42.805,6.029,CST-1368DR,5274,7253,14737,0.232,551
2021-08-25T11:39:22,42.805,6.029,CST-1368DR,5274,7254,14737,0.232,551
2021-08-25T11:42:24,42.805,6.029,CST-1368DR,5274,7251,14732,0.233,551
2021-08-25T11:45:25,42.805,6.029,CST-1368DR,5274,7253,14737,0.232,551
2021-08-25T11:48:27,42.805,6.029,CST-1368DR,5274,7254,14737,0.232,551
2021-08-25T11:51:29,42.805,6.029,CST-1368DR,5274,7253,14736,0.232,551
2021-08-25T11:54:30,42.805,6.029,CST-1368DR,5274,7252,14734,0.233,551
2021-08-25T11:57:32,42.805,6.029,CST-1368DR,5274,7253,14735,0.232,551
2021-08-25T12:00:33,42.805,6.029,CST-1368DR,5274,7253,14735,0.232,551
2021-08-25T12:03:35,42.805,6.029,CST-1368DR,5274,7253,14737,0.232,551
2021-08-25T12:06:36,42.805,6.029,CST-1368DR,5274,7252,14733,0.233,551
2021-08-25T12:09:38,42.805,6.029,CST-1368DR,5274,7251,14733,0.233,551
2021-08-25T12:12:40,42.805,6.029,CST-1368DR,5274,7253,14736,0.232,551
2021-08-25T12:15:41,42.805,6.029,CST-1368DR,5274,7253,14736,0.232,551
2021-08-25T12:18:43,42.805,6.029,CST-1368DR,5274,7253,14736,0.232,551
2021-08-25T12:21:44,42.805,6.029,CST-1368DR,5274,7253,14735,0.232,551
2021-08-25T12:24:46,42.805,6.029,CST-1368DR,5274,7252,14734,0.233,551
2021-08-25T12:27:48,42.805,6.029,CST-1368DR,5274,7253,14736,0.232,551
2021-08-25T12:30:49,42.805,6.029,CST-1368DR,5274,7253,14736,0.232,551
2021-08-25T12:33:51,42.805,6.029,CST-1368DR,5274,7253,14736,0.232,551
2021-08-25T12:36:52,42.805,6.029,CST-1368DR,5274,7252,14734,0.233,551
2021-08-25T12:39:54,42.805,6.029,CST-1368DR,5274,7253,14736,0.232,551
2021-08-25T12:42:55,42.805,6.029,CST-1368DR,5274,7252,14733,0.233,551
2021-08-25T12:45:57,42.805,6.029,CST-1368DR,5274,7253,14736,0.232,551
2021-08-25T12:48:59,42.805,6.029,CST-1368DR,5274,7253,14736,0.232,551
2021-08-25T12:52:00,42.805,6.029,CST-1368DR,5274,7253,14737,0.232,551
2021-08-25T12:55:02,42.805,6.029,CST-1368DR,5274,7253,14737,0.232,551
2021-08-25T12:58:03,42.805,6.029,CST-1368DR,5274,7254,14738,0.231,551
2021-08-25T13:01:05,42.805,6.029,CST-1368DR,5274,7253,14735,0.232,551
2021-08-25T13:04:07,42.805,6.029,CST-1368DR,5274,7254,14738,0.231,551
2021-08-25T13:07:08,42.805,6.029,CST-1368DR,5274,7253,14737,0.232,551
2021-08-25T13:10:10,42.805,6.029,CST-1368DR,5274,7253,14736,0.232,551
2021-08-25T13:13:11,42.805,6.029,CST-1368DR,5274,7253,14736,0.232,551
2021-08-25T13:16:13,42.805,6.029,CST-1368DR,5274,7253,14736,0.232,551
2021-08-25T13:19:14,42.805,6.029,CST-1368DR,5274,7253,14736,0.232,551
2021-08-25T13:22:16,42.805,6.029,CST-1368DR,5274,7254,14737,0.232,551
2021-08-25T13:25:18,42.805,6.029,CST-1368DR,5274,7253,14736,0.232,551
2021-08-25T13:28:19,42.805,6.029,CST-1368DR,5274,7254,14737,0.232,551
2021-08-25T13:31:21,42.805,6.029,CST-1368DR,5274,7253,14737,0.232,551
2021-08-25T13:34:22,42.805,6.029,CST-1368DR,5274,7253,14736,0.232,551
2021-08-25T13:37:24,42.805,6.029,CST-1368DR,5274,7253,14736,0.232,551
2021-08-25T13:40:25,42.805,6.029,CST-1368DR,5274,7253,14737,0.232,551
2021-08-25T13:43:27,42.805,6.029,CST-1368DR,5274,7253,14736,0.232,551
2021-08-25T13:46:29,42.805,6.029,CST-1368DR,5274,7254,14737,0.232,551
2021-08-25T13:49:30,42.805,6.029,CST-1368DR,5274,7253,14736,0.232,551
2021-08-25T13:52:32,42.805,6.029,CST-1368DR,5274,7253,14736,0.232,551
2021-08-25T13:55:33,42.805,6.029,CST-1368DR,5274,7253,14736,0.232,551
2021-08-25T13:58:35,42.805,6.029,CST-1368DR,5274,7253,14735,0.232,551
2021-08-25T14:01:37,42.805,6.029,CST-1368DR,5274,7253,14737,0.232,551
2021-08-25T14:04:38,42.805,6.029,CST-1368DR,5274,7253,14736,0.232,551
2021-08-25T14:07:40,42.805,6.029,CST-1368DR,5274,7253,14736,0.232,551
2021-08-25T14:10:41,42.805,6.029,CST-1368DR,5274,7252,14734,0.233,551
2021-08-25T14:13:43,42.805,6.029,CST-1368DR,5274,7253,14737,0.232,551
2021-08-25T14:16:44,42.805,6.029,CST-1368DR,5274,7253,14736,0.232,551
2021-08-25T14:19:46,42.805,6.029,CST-1368DR,5274,7253,14737,0.232,551
2021-08-25T14:22:48,42.805,6.029,CST-1368DR,5274,7253,14736,0.232,551
2021-08-25T14:25:49,42.805,6.029,CST-1368DR,5274,7252,14733,0.233,551
2021-08-25T14:28:51,42.805,6.029,CST-1368DR,5274,7253,14736,0.232,551
2021-08-25T14:31:52,42.805,6.029,CST-1368DR,5274,7254,14737,0.232,551
2021-08-25T14:34:54,42.805,6.029,CST-1368DR,5274,7253,14736,0.232,551
2021-08-25T14:37:55,42.805,6.029,CST-1368DR,5274,7253,14736,0.232,551
2021-08-25T14:40:57,42.805,6.029,CST-1368DR,5274,7253,14736,0.232,551
2021-08-25T14:43:59,42.805,6.029,CST-1368DR,5274,7252,14733,0.233,551
2021-08-25T14:47:00,42.805,6.029,CST-1368DR,5274,7253,14736,0.232,551
2021-08-25T14:50:02,42.805,6.029,CST-1368DR,5274,7249,14729,0.234,551
2021-08-25T14:53:03,42.805,6.029,CST-1368DR,5274,7252,14734,0.233,551
2021-08-25T14:56:05,42.805,6.029,CST-1368DR,5274,7252,14734,0.233,551
2021-08-25T14:59:07,42.805,6.029,CST-1368DR,5274,7252,14734,0.233,551
2021-08-25T15:02:08,42.805,6.029,CST-1368DR,5274,7253,14735,0.232,551
2021-08-25T15:05:10,42.805,6.029,CST-1368DR,5274,7253,14735,0.232,551
2021-08-25T15:08:11,42.805,6.029,CST-1368DR,5274,7253,14735,0.232,551
2021-08-25T15:11:13,42.805,6.029,CST-1368DR,5274,7253,14735,0.232,551
2021-08-25T15:14:14,42.805,6.029,CST-1368DR,5274,7253,14735,0.232,551
2021-08-25T15:17:16,42.805,6.029,CST-1368DR,5274,7253,14736,0.232,551
2021-08-25T15:20:18,42.805,6.029,CST-1368DR,5274,7253,14737,0.232,551
2021-08-25T15:23:19,42.805,6.029,CST-1368DR,5274,7253,14736,0.232,551
2021-08-25T15:26:21,42.805,6.029,CST-1368DR,5274,7253,14735,0.232,551
2021-08-25T15:29:22,42.805,6.029,CST-1368DR,5274,7253,14736,0.232,551
2021-08-25T15:32:24,42.805,6.029,CST-1368DR,5274,7253,14737,0.232,551
2021-08-25T15:35:26,42.805,6.029,CST-1368DR,5274,7252,14734,0.233,551
2021-08-25T15:38:27,42.805,6.029,CST-1368DR,5274,7253,14735,0.232,551
2021-08-25T15:41:29,42.805,6.029,CST-1368DR,5274,7252,14734,0.233,551
2021-08-25T15:44:30,42.805,6.029,CST-1368DR,5274,7251,14733,0.233,551
2021-08-25T15:47:32,42.805,6.029,CST-1368DR,5274,7253,14736,0.232,551
2021-08-25T15:50:33,42.805,6.029,CST-1368DR,5273,7248,14729,0.234,551
2021-08-25T15:53:35,42.805,6.029,CST-1368DR,5273,7253,14739,0.231,551
2021-08-25T15:56:37,42.805,6.029,CST-1368DR,5274,7253,14735,0.232,551
2021-08-25T15:59:38,42.805,6.029,CST-1368DR,5273,7252,14737,0.232,551
2021-08-25T16:02:40,42.805,6.029,CST-1368DR,5274,7253,14736,0.232,551
2021-08-25T16:05:41,42.805,6.029,CST-1368DR,5273,7253,14739,0.231,551
2021-08-25T16:08:43,42.805,6.029,CST-1368DR,5273,7253,14739,0.231,551
2021-08-25T16:11:45,42.805,6.029,CST-1368DR,5273,7253,14739,0.231,551
2021-08-25T16:14:46,42.805,6.029,CST-1368DR,5274,7253,14736,0.232,551
2021-08-25T16:17:48,42.805,6.029,CST-1368DR,5273,7253,14739,0.231,551
2021-08-25T16:20:49,42.805,6.029,CST-1368DR,5274,7254,14737,0.232,551
2021-08-25T16:23:51,42.805,6.029,CST-1368DR,5274,7253,14736,0.232,551
2021-08-25T16:26:52,42.805,6.029,CST-1368DR,5274,7253,14737,0.232,551
2021-08-25T16:29:54,42.805,6.029,CST-1368DR,5274,7252,14734,0.233,551
2021-08-25T16:32:56,42.805,6.029,CST-1368DR,5274,7253,14737,0.232,551
2021-08-25T16:35:57,42.805,6.029,CST-1368DR,5273,7253,14739,0.231,551
2021-08-25T16:38:59,42.805,6.029,CST-1368DR,5274,7250,14731,0.233,551
2021-08-25T16:42:00,42.805,6.029,CST-1368DR,5273,7252,14737,0.232,551
2021-08-25T16:45:02,42.805,6.029,CST-1368DR,5274,7252,14734,0.233,551
2021-08-25T16:48:03,42.805,6.029,CST-1368DR,5274,7252,14734,0.233,551
2021-08-25T16:51:05,42.805,6.029,CST-1368DR,5274,7250,14729,0.234,551